Theta_e
294 294 293 293 293 293 293 292 292 292 291 291 290 290 291 290 290 290 289 288 288 287 287 287 286 286 285 285 284 284 283 283 282 281 281 280 280 279 279 278 278 278 277 277 277 277 276 276 276 276 276 275 275 275 275 275 275 274 274 274 274 274 274 273 272 272 272 271 271 271 271 271 271 271 271 271 271 271 270 270 270 270 270 270 269
293 293 293 292 292 293 292 292 291 291 291 290 290 290 291 291 291 290 289 289 288 288 287 287 286 286 285 285 284 284 283 283 282 281 281 280 280 279 279 278 278 278 277 277 277 276 276 276 276 276 275 275 275 275 274 274 274 274 274 274 274 274 274 273 272 271 271 270 271 270 270 270 270 270 270 270 270 270 270 270 270 269 269 269 269
292 292 292 292 292 292 292 291 291 290 290 290 291 291 291 291 291 290 289 289 289 288 288 287 287 286 285 285 284 284 283 283 282 281 281 280 280 279 279 279 278 278 277 277 277 276 276 276 276 275 275 275 274 274 274 274 273 273 273 274 274 273 273 273 272 271 270 270 270 270 269 269 269 269 270 270 269 269 269 269 269 269 269 268 268
290 290 291 291 291 291 291 291 291 291 291 291 291 291 291 290 290 290 289 289 289 288 288 287 287 286 286 285 284 283 283 282 282 281 281 281 280 280 279 279 278 278 277 277 277 276 276 276 275 275 275 274 274 274 274 273 273 273 273 273 273 273 273 273 272 271 270 269 269 269 269 269 269 269 269 269 269 268 268 268 268 268 268 268 267
289 289 289 289 290 290 290 290 290 290 290 290 290 290 289 289 289 289 288 288 288 288 288 287 287 286 286 285 284 284 283 283 282 281 281 281 280 280 279 279 279 278 278 277 277 276 276 276 275 275 274 274 274 274 273 273 273 273 273 272 272 272 272 272 272 271 270 269 269 269 269 268 268 268 268 268 268 268 268 268 268 268 267 267 267
288 288 288 288 289 289 288 288 288 288 288 288 288 289 288 288 288 288 288 287 287 287 287 287 286 286 286 285 285 284 284 283 282 281 281 280 280 280 279 279 279 278 278 277 277 276 276 276 275 275 274 274 274 274 273 273 273 273 272 272 272 272 271 271 271 270 270 269 268 268 268 268 268 268 268 268 267 267 267 267 267 267 267 267 266
288 288 288 288 288 288 288 288 287 287 287 288 288 288 288 288 287 287 287 286 286 286 286 286 286 286 286 285 285 284 283 283 282 281 281 280 280 279 279 279 278 278 278 277 277 276 276 276 275 275 275 274 274 274 273 273 273 272 272 272 272 272 271 271 270 270 269 269 268 268 267 267 267 267 267 267 267 267 267 266 266 266 266 266 266
287 287 287 287 287 287 287 286 286 286 286 286 286 286 286 286 286 286 286 285 285 285 285 285 285 285 285 284 284 283 282 282 281 280 280 280 279 279 279 278 278 278 277 277 277 276 276 276 275 275 275 275 274 274 274 273 273 272 272 272 272 271 271 271 270 269 269 268 268 267 267 267 267 267 267 266 266 266 266 266 266 266 266 266 266
285 285 285 285 285 285 285 285 284 284 285 285 285 285 284 284 284 284 284 284 284 284 284 284 283 283 283 283 282 282 281 281 280 280 279 279 279 278 278 278 278 277 277 277 276 276 276 276 275 275 275 275 274 274 274 273 273 272 272 272 272 271 271 270 270 269 268 267 267 267 266 266 266 266 266 266 266 266 266 266 265 265 265 265 265
283 284 284 283 283 283 283 283 282 282 282 282 282 282 282 282 282 283 283 283 283 283 282 282 282 282 281 281 280 280 280 279 279 279 279 279 278 278 278 277 277 277 277 276 276 276 276 275 275 275 275 274 274 274 274 273 273 273 273 272 272 272 271 270 269 268 268 267 267 266 266 265 266 266 266 266 267 266 266 265 265 265 264 264 264
282 282 282 282 281 281 281 280 280 280 280 280 280 279 280 280 280 281 281 281 281 281 281 281 281 281 280 280 279 279 279 279 278 278 278 278 278 277 277 277 277 276 276 276 276 275 275 275 275 275 274 274 274 274 273 273 273 273 273 272 273 272 271 270 269 268 268 267 267 267 266 265 266 266 266 266 266 266 266 265 265 264 264 263 263
281 281 280 280 280 279 279 279 279 279 279 278 278 278 278 278 278 278 279 279 279 279 279 280 279 279 279 279 279 279 278 278 278 278 278 278 278 277 277 277 276 276 276 276 276 275 275 275 275 274 274 274 274 273 273 273 273 273 272 272 272 272 271 271 270 269 269 268 267 266 266 266 266 266 266 266 266 266 265 265 264 264 264 263 263
280 279 279 279 279 278 279 279 278 278 278 277 277 277 277 277 277 277 277 277 277 277 277 278 278 278 278 278 278 278 278 278 278 278 278 278 278 278 278 277 277 276 276 276 276 275 275 275 274 274 274 274 273 273 273 273 273 272 272 272 272 271 271 271 271 270 270 269 268 267 267 267 267 267 267 267 266 266 265 265 264 264 263 263 263
279 278 278 278 278 278 278 278 278 277 277 277 276 276 276 276 276 276 276 276 276 276 276 276 276 276 276 276 276 276 277 277 277 277 278 278 279 279 278 278 277 277 277 276 276 275 275 275 274 274 274 274 273 273 273 273 272 272 272 271 271 271 271 270 270 270 270 270 269 268 268 268 268 268 268 267 266 266 265 265 265 264 264 264 264
278 277 277 277 277 277 277 277 277 277 276 276 276 275 275 275 275 275 275 275 275 274 275 275 275 275 275 275 275 275 275 275 275 276 277 277 278 278 278 277 277 277 276 276 275 275 275 275 274 274 274 274 273 273 273 273 272 272 272 271 271 271 270 270 270 270 270 269 269 269 268 268 268 268 268 267 267 266 266 266 265 265 264 264 264
276 276 275 275 275 275 275 275 276 276 276 275 275 275 274 274 274 274 274 274 274 273 273 273 273 274 274 274 274 274 274 274 274 275 275 276 276 276 276 275 275 275 275 274 274 274 274 273 273 273 273 273 273 273 272 272 272 271 271 271 271 270 270 270 270 270 270 269 269 269 268 268 268 268 268 267 267 267 266 266 265 264 264 263 263
274 274 274 274 274 274 274 274 274 274 274 274 274 274 274 273 273 273 273 273 273 273 272 272 272 272 272 272 272 273 273 273 273 273 274 274 275 274 273 273 272 272 272 272 272 273 273 272 272 272 272 272 272 272 272 271 271 271 270 270 270 269 269 270 269 269 269 269 269 269 269 268 268 268 268 268 268 268 266 265 264 264 263 263 263
273 273 273 273 273 273 273 273 273 273 273 273 273 273 273 273 273 272 272 272 272 272 272 271 271 271 271 271 271 271 271 271 271 271 272 272 273 272 271 271 271 270 270 270 271 271 271 271 272 272 271 271 272 272 272 271 271 270 270 269 269 268 268 269 269 269 269 269 269 269 269 269 269 269 270 269 269 269 267 266 265 265 263 263 263
272 272 272 272 272 272 272 272 272 272 272 272 272 272 272 272 272 272 271 271 271 271 271 271 271 270 270 270 270 270 270 270 270 270 270 271 271 271 271 270 270 270 269 269 269 269 269 270 270 270 271 271 271 271 271 271 271 271 270 269 268 267 268 268 268 268 268 268 268 268 268 268 268 268 269 269 269 270 269 268 267 266 264 264 264
271 271 271 271 271 271 271 271 271 271 271 271 271 271 271 271 271 271 271 271 270 270 270 270 270 270 269 269 269 269 269 269 269 269 269 270 270 270 270 270 269 269 269 269 269 269 269 269 269 269 270 270 270 271 271 272 272 271 271 269 268 268 268 268 268 268 268 268 268 268 268 268 268 268 268 268 268 268 268 268 267 266 265 265 265
270 270 270 270 270 270 270 270 270 270 270 269 269 269 269 269 270 270 270 270 269 269 269 269 269 269 269 269 268 268 268 268 269 269 268 268 269 269 269 269 269 268 268 268 268 268 268 268 268 268 269 269 270 270 271 271 271 271 271 270 269 269 269 269 269 269 268 268 268 267 267 267 267 267 267 267 267 268 268 268 267 266 266 265 265
269 270 270 270 270 269 269 269 269 268 268 268 268 268 268 268 268 268 268 268 268 268 268 268 268 268 268 268 268 268 267 267 267 268 267 267 267 268 268 268 268 268 268 268 268 268 268 268 268 268 268 268 269 270 270 271 271 271 271 270 270 270 270 270 270 269 269 269 268 268 267 267 266 267 266 267 267 267 267 268 267 267 266 265 265
269 269 269 269 269 268 268 268 268 267 267 267 267 267 267 267 267 267 267 267 267 267 267 267 267 267 267 267 267 267 266 266 266 266 266 266 266 266 267 267 268 268 268 268 268 268 268 268 268 268 268 268 269 269 270 270 270 270 270 270 270 270 270 270 270 269 269 268 268 268 267 267 267 266 266 266 266 267 267 267 267 267 266 266 265
268 268 268 268 267 267 267 267 267 267 267 266 266 266 266 266 266 266 266 266 266 266 266 266 266 266 266 266 266 266 265 265 265 265 265 265 265 265 266 267 267 267 268 267 267 267 267 268 268 268 268 268 269 269 269 269 269 269 269 269 269 269 268 268 268 267 267 267 267 267 267 267 267 266 266 266 266 266 266 266 266 266 266 266 266
267 267 266 266 266 266 266 266 266 266 266 266 266 265 265 265 265 265 265 265 265 265 265 265 265 264 264 264 264 265 264 264 264 264 264 264 264 265 265 266 266 266 266 266 266 266 267 267 267 268 268 268 268 268 268 268 268 268 268 268 268 267 266 266 265 265 265 265 265 265 265 266 266 266 266 266 266 266 266 266 266 266 266 266 265
265 265 265 265 265 266 266 266 266 266 266 266 265 265 265 265 264 264 264 264 264 264 264 264 264 264 264 264 264 264 264 265 265 265 265 265 265 265 265 265 265 265 265 265 265 265 265 266 266 267 267 267 267 266 267 267 267 266 266 266 266 266 265 265 264 264 264 264 264 264 264 264 264 265 265 265 265 265 265 265 265 265 265 265 265
264 264 264 264 264 264 265 265 265 265 265 265 265 265 264 264 264 264 264 264 264 264 264 263 263 263 263 263 264 264 265 265 265 265 265 265 265 265 265 265 265 265 265 265 265 265 265 265 265 265 265 265 264 264 265 265 265 265 265 265 265 265 264 264 264 263 263 263 263 263 263 263 263 263 263 263 264 264 264 264 264 264 264 264 263
263 263 263 263 263 263 263 263 263 263 263 263 263 263 263 263 263 263 263 263 263 263 263 263 263 263 263 264 264 265 265 265 265 265 265 265 265 266 266 266 266 266 266 266 266 265 265 265 265 264 264 264 264 264 264 264 264 264 264 264 264 264 264 264 263 263 263 263 262 262 262 262 262 262 262 262 262 262 263 263 263 263 263 263 262
263 263 263 263 262 262 262 262 262 262 262 262 262 262 262 262 262 263 263 263 263 263 263 263 263 264 264 265 265 264 264 265 265 265 265 266 266 267 266 266 266 266 265 265 265 265 265 265 265 265 265 264 264 264 264 264 264 264 264 264 264 264 263 263 262 262 262 262 261 261 261 261 261 261 261 261 261 262 262 262 262 262 262 262 262
262 262 262 262 262 262 262 262 262 261 261 262 262 262 262 262 262 262 263 263 263 263 263 264 265 265 265 265 265 264 264 265 265 265 266 266 267 266 266 265 265 265 265 265 265 265 265 264 264 264 264 264 263 263 263 263 263 263 263 263 263 262 262 261 261 261 261 261 260 261 260 260 260 260 260 260 261 261 261 261 261 261 261 262 262
261 262 261 261 261 261 261 261 261 261 261 261 261 261 262 263 263 263 263 262 262 263 264 265 265 266 266 265 264 264 264 264 264 264 265 265 265 265 264 264 265 265 265 265 265 265 264 263 263 262 262 262 261 261 261 261 260 260 261 261 261 260 260 260 260 259 259 259 259 259 259 259 259 260 260 260 260 260 260 260 260 261 261 261 261
261 261 261 261 261 261 261 261 260 260 260 260 260 260 260 261 262 263 263 263 262 263 263 263 264 264 264 264 263 263 263 263 263 263 264 263 263 263 263 264 264 264 264 264 264 263 262 261 261 260 260 260 260 259 259 259 259 259 259 259 259 259 259 259 258 258 258 258 258 258 258 258 258 258 258 259 259 259 259 260 260 260 260 260 261
260 260 260 260 260 261 260 260 260 260 260 260 260 260 259 259 259 260 261 262 262 262 262 262 262 262 262 261 261 261 261 262 262 262 261 261 262 262 263 263 262 262 262 262 261 260 260 259 259 258 258 258 258 258 258 258 258 258 258 257 257 257 257 257 257 257 257 257 256 256 256 256 256 256 257 257 257 257 258 258 258 259 259 260 260
260 260 260 260 260 260 260 260 259 259 259 259 259 259 259 258 258 258 259 260 260 261 261 261 261 260 260 260 259 259 260 260 260 259 259 260 262 262 262 261 261 261 260 260 259 258 258 257 257 257 257 256 256 256 256 256 256 256 256 256 256 256 256 256 256 256 255 255 255 255 255 255 255 255 255 255 255 256 256 256 257 257 258 258 259
260 260 260 259 259 259 259 259 259 259 259 259 259 258 258 258 258 257 257 257 257 258 259 259 259 258 258 258 258 258 258 258 258 258 259 261 262 260 259 259 259 259 259 258 257 257 256 256 256 256 255 255 255 255 255 255 255 255 255 255 255 255 254 254 254 254 254 254 254 254 254 254 254 254 254 254 254 254 255 255 255 256 256 256 257
260 260 260 260 259 259 259 259 259 259 259 259 258 258 258 257 257 257 257 257 257 257 257 258 258 258 257 257 257 257 257 257 257 258 259 260 259 258 257 257 257 257 257 257 256 256 255 255 255 255 254 254 254 254 254 254 254 254 254 254 254 254 253 253 253 253 253 253 253 253 253 253 253 253 253 253 253 253 253 253 254 254 254 255 255
259 259 259 259 259 259 259 259 259 259 259 258 258 258 257 257 257 257 257 257 257 256 257 257 257 257 257 257 256 256 256 256 256 257 257 257 257 256 256 256 255 256 256 255 255 255 254 254 254 254 254 254 254 254 254 253 253 253 253 253 253 253 253 253 253 253 253 253 253 252 252 252 252 252 252 252 252 252 252 252 252 252 253 253 253
259 259 259 259 259 259 259 259 259 259 259 258 258 257 257 257 257 257 256 256 256 256 256 256 256 256 256 256 256 256 255 255 255 256 256 256 255 255 255 255 255 255 255 255 254 254 254 254 253 253 253 253 253 253 253 253 253 253 252 252 252 252 252 252 252 252 252 252 252 252 252 252 252 252 251 251 251 251 252 252 251 252 252 252 252
259 259 259 259 259 259 259 258 258 258 258 257 257 257 256 256 256 256 256 256 256 256 256 255 255 255 255 255 255 255 255 255 255 255 255 255 255 254 254 254 254 254 254 254 254 254 253 253 253 253 253 253 252 252 252 252 252 252 252 252 252 252 252 252 252 251 252 251 251 252 251 251 251 251 251 251 251 251 251 251 251 251 251 251 251
259 259 259 259 259 258 258 258 257 257 257 256 256 256 256 256 256 256 256 255 255 255 255 255 255 255 255 254 254 254 255 255 255 255 254 254 254 254 254 253 253 253 253 253 253 253 253 253 252 252 252 252 252 252 252 252 251 251 251 251 251 251 251 251 251 251 251 251 251 251 251 251 251 251 251 251 251 251 251 251 251 251 251 250 250
259 259 259 259 258 258 257 257 257 256 256 256 256 255 256 256 255 255 255 255 255 255 255 254 254 254 254 254 254 254 254 254 254 254 254 254 253 253 253 253 253 253 253 253 252 252 252 252 252 252 252 252 251 251 251 251 251 251 251 251 251 250 250 250 250 250 250 250 250 250 250 250 250 250 250 250 250 251 251 251 250 250 250 250 250
259 259 259 258 258 257 257 256 256 256 255 255 255 255 256 255 255 255 255 255 254 254 254 254 253 253 253 253 253 253 254 253 253 253 253 253 253 253 253 253 253 253 252 252 252 252 252 252 252 252 251 251 251 251 251 250 250 250 250 250 250 250 250 250 250 250 250 250 250 250 250 250 250 250 250 250 250 250 250 250 250 250 250 249 249
259 258 258 258 257 257 256 256 256 255 255 255 255 255 255 255 255 255 254 254 254 254 253 253 253 252 252 252 252 252 253 253 253 253 253 252 252 252 252 252 252 252 252 252 252 252 252 251 251 251 251 251 250 250 250 250 250 250 249 249 249 249 249 249 249 249 249 249 249 249 249 249 250 250 250 250 250 250 250 250 250 249 249 249 249
259 258 258 257 257 257 257 256 256 256 255 255 255 255 255 255 254 254 254 254 253 253 253 252 252 252 252 252 252 252 252 252 252 252 252 252 252 252 252 252 252 252 252 252 251 251 251 251 251 251 250 250 250 250 249 249 249 249 249 249 249 249 249 249 249 249 249 249 249 249 249 249 249 249 250 250 250 250 250 249 249 249 249 249 248
258 258 257 257 257 257 257 257 256 256 255 255 255 254 254 254 254 253 253 253 253 252 252 252 252 251 251 251 251 251 252 252 252 252 252 252 252 252 252 252 252 252 251 251 251 251 251 250 250 250 250 249 249 249 249 249 248 248 248 248 248 248 248 248 248 248 248 249 249 249 249 249 249 249 249 249 249 249 249 249 249 249 248 248 248
258 258 257 257 257 257 257 257 256 255 255 254 254 254 254 254 253 253 253 252 252 252 252 251 251 251 251 251 251 251 251 251 251 251 251 251 251 251 251 251 251 251 251 251 251 250 250 250 250 249 249 249 249 248 248 248 248 248 248 248 248 248 248 248 248 248 248 248 248 249 249 249 249 249 249 249 249 249 249 248 248 248 248 248 248
258 257 257 256 256 257 257 256 255 255 254 254 254 253 253 253 253 253 252 252 252 252 251 251 251 251 250 250 251 251 251 251 251 251 251 251 251 251 251 251 251 251 251 250 250 250 250 249 249 249 249 248 248 248 248 247 248 248 248 248 248 248 248 248 248 248 248 248 248 248 248 248 248 248 248 248 248 248 248 248 248 248 248 248 247
257 256 256 256 256 256 256 255 255 254 254 253 253 253 253 253 253 252 252 252 252 251 251 251 250 250 250 250 250 250 250 250 250 250 251 251 251 251 251 251 251 250 250 250 250 249 249 249 249 248 248 248 247 247 247 247 248 248 248 248 248 248 248 248 248 248 248 248 248 248 248 248 248 248 248 248 248 248 248 248 248 247 247 247 247
257 256 256 256 256 256 255 255 254 254 254 253 253 253 253 252 252 252 252 251 251 251 251 250 250 250 250 250 250 250 250 250 250 250 250 250 251 251 250 250 250 250 250 249 249 249 249 248 248 248 247 247 247 247 247 247 247 247 247 247 247 247 247 247 247 247 247 247 247 247 247 248 248 247 247 247 247 247 247 247 247 247 247 247 246
256 256 255 255 255 255 255 255 254 254 254 253 253 253 252 252 252 252 252 251 251 251 251 250 250 250 250 250 250 250 250 250 250 250 250 250 250 250 250 250 250 249 249 249 249 248 248 248 248 247 247 247 247 247 247 247 247 247 247 247 247 247 247 247 247 247 247 247 247 247 247 247 247 247 247 247 247 247 247 247 247 246 246 246 246
256 256 256 255 255 255 255 255 254 254 254 253 253 252 252 252 252 252 251 251 251 251 250 250 250 250 250 250 250 250 250 250 250 250 250 250 250 250 250 250 249 249 249 249 248 248 248 248 247 247 247 247 247 247 247 247 247 247 247 247 247 247 247 247 247 247 247 247 247 247 247 247 247 247 247 246 246 246 246 246 246 246 246 246 246
Wind_Speed
16 19 21 23 25 27 28 29 29 30 31 32 32 33 33 34 34 35 35 35 35 35 36 36 37 38 38 39 40 40 41 41 41 41 41 42 41 41 40 39 39 40 39 38 38 37 38 38 39 39 36 35 36 35 35 35 34 33 32 32 32 31 29 24 16 14 15 15 15 15 15 16 17 18 18 19 19 20 21 21 22 23 24 25 26
15 17 18 21 23 25 26 27 27 27 28 29 29 30 30 31 32 33 33 34 34 34 35 35 36 37 37 38 39 39 40 40 40 40 41 41 40 40 39 38 39 39 38 38 38 37 38 39 39 37 35 34 35 34 33 33 32 33 33 33 33 33 32 29 23 17 16 17 19 20 19 19 20 21 21 22 22 22 23 24 25 26 28 29 29
13 14 16 18 20 21 23 24 24 24 25 26 26 27 27 28 29 30 32 32 32 32 33 34 34 35 36 37 38 38 39 40 40 40 40 41 40 40 39 39 39 39 38 39 38 37 37 38 38 36 33 33 34 33 32 32 31 32 33 34 35 34 33 32 28 21 18 18 19 20 20 21 22 23 23 24 25 25 26 27 27 28 29 29 29
11 11 11 13 14 16 17 18 19 20 20 21 22 23 24 25 26 28 29 29 30 30 31 32 32 33 34 35 36 37 38 38 39 40 40 40 40 40 39 39 39 39 39 39 38 37 37 37 37 35 33 34 34 32 31 31 32 32 33 34 34 35 34 33 32 27 21 18 19 20 21 21 22 22 22 23 24 25 25 26 27 28 29 29 29
16 14 11 10 10 10 11 11 13 14 15 16 18 19 20 21 22 23 24 26 26 27 28 28 29 31 32 33 34 36 37 38 38 39 40 40 40 40 39 38 38 39 39 39 37 36 37 37 37 34 33 34 34 32 32 32 32 33 33 33 33 33 33 33 33 31 26 21 19 19 19 20 20 20 21 22 23 24 24 26 28 29 30 30 30
18 16 14 12 11 10 9 9 10 11 12 13 14 15 16 16 17 18 18 19 20 21 23 24 25 27 29 30 32 33 34 36 37 38 38 38 38 38 37 36 37 37 37 36 36 35 36 37 36 34 34 35 35 34 34 33 33 33 33 33 32 32 32 32 31 30 28 26 23 20 19 20 20 21 21 21 22 23 24 27 29 29 29 30 31
21 19 18 16 14 13 12 11 11 11 11 11 12 12 12 12 13 12 12 13 14 15 17 18 20 22 24 26 28 30 31 32 34 35 36 36 36 36 35 35 34 34 34 34 34 34 35 35 35 34 35 36 36 35 34 34 34 34 34 33 31 30 30 30 29 28 27 26 23 22 21 21 21 21 21 20 21 22 24 25 27 28 28 29 31
22 21 19 17 15 13 11 10 10 9 9 9 9 9 9 10 10 10 9 9 10 11 12 14 15 17 19 21 23 25 27 28 30 31 33 33 34 34 34 33 32 32 31 31 32 32 33 34 34 34 35 37 37 36 36 35 34 34 34 32 31 31 30 29 28 27 26 25 23 21 21 21 20 20 19 17 19 23 25 25 26 28 28 29 29
18 16 14 11 9 7 7 6 6 6 6 7 7 7 7 8 8 8 8 8 8 9 10 11 12 14 15 17 18 20 22 24 25 27 29 30 31 32 31 31 30 29 29 29 29 30 31 32 33 33 34 35 36 36 36 36 35 34 33 32 32 32 31 29 28 27 24 23 22 20 18 19 20 19 19 20 23 27 26 23 25 27 25 27 30
14 11 8 5 4 4 3 4 4 4 5 6 6 6 7 7 7 7 7 7 7 8 8 9 9 10 11 13 14 15 16 18 19 22 24 26 27 28 29 28 28 28 27 27 27 28 29 30 31 32 32 33 34 35 35 35 36 35 34 33 34 33 32 29 28 27 25 22 22 20 18 19 20 21 23 26 27 28 26 24 26 25 22 23 28
10 8 5 4 3 3 3 4 5 6 7 8 8 8 8 8 8 8 7 7 7 7 7 7 8 8 9 10 11 11 12 13 14 16 18 20 23 24 25 26 26 26 27 26 26 27 27 28 29 29 30 30 31 32 33 34 35 34 34 33 33 34 33 32 29 28 26 24 23 22 21 21 22 24 25 27 26 27 28 26 25 23 21 19 20
10 8 6 4 4 5 5 6 8 9 9 10 10 10 9 9 9 8 8 8 8 7 7 7 7 7 7 8 9 9 10 11 11 12 13 15 17 19 22 23 24 25 26 26 26 26 26 26 27 28 29 29 30 31 32 32 33 33 33 34 33 33 34 34 32 30 28 26 25 25 25 25 26 26 27 27 27 28 27 25 25 24 23 21 20
11 9 7 7 7 8 9 9 10 10 10 10 10 10 10 10 10 10 9 9 9 8 7 7 6 6 6 6 7 7 8 8 8 9 10 11 13 15 18 21 23 24 25 26 26 26 26 26 26 27 28 28 29 29 30 31 31 32 33 33 34 33 33 32 31 30 31 31 29 29 29 29 29 30 30 29 28 27 26 26 27 27 26 25 27
13 11 9 10 10 11 11 11 11 11 11 11 10 10 11 10 10 10 10 9 9 9 8 7 7 6 6 5 5 5 5 6 7 7 7 9 10 12 15 18 20 22 24 25 26 26 26 26 27 27 28 28 29 29 30 30 31 32 33 33 34 34 34 32 30 29 30 32 33 34 34 33 33 34 33 30 29 29 29 29 30 30 30 30 32
13 11 10 11 12 12 13 13 13 13 12 12 12 11 11 11 11 11 10 10 10 9 9 8 8 7 6 5 5 4 4 4 4 4 5 7 8 10 12 12 13 18 21 22 24 25 25 26 26 27 27 27 28 29 29 30 31 32 33 34 34 34 35 35 34 33 33 34 36 37 37 36 36 36 35 34 34 35 35 34 34 32 31 30 31
12 11 11 12 12 13 14 15 15 14 14 13 12 11 11 11 11 11 10 10 10 9 9 9 8 7 7 6 5 5 4 3 3 3 4 4 6 8 9 6 4 8 12 14 16 18 20 22 23 24 25 25 26 26 28 29 31 32 33 34 34 35 35 36 35 35 35 36 38 39 38 38 37 37 36 36 36 37 36 35 33 30 27 25 26
11 11 12 12 13 14 15 15 15 14 13 13 12 12 11 11 10 10 10 9 9 9 9 8 8 7 7 6 5 4 4 4 3 3 4 4 5 7 7 6 5 4 5 6 9 11 13 16 18 20 22 23 24 25 26 27 29 32 32 32 33 33 34 34 33 32 32 32 35 37 37 37 35 34 34 33 34 36 34 31 29 28 25 20 18
11 11 12 12 13 14 14 13 13 12 12 11 11 12 11 10 10 9 9 9 9 9 9 8 8 7 6 6 6 5 5 4 4 4 5 5 6 8 10 10 9 8 7 7 8 9 10 12 14 17 19 20 21 22 23 24 28 30 31 32 31 32 32 32 32 33 33 32 33 35 36 36 34 33 33 32 32 32 32 33 33 31 26 20 19
11 12 12 12 12 12 12 12 11 11 11 11 11 11 11 11 10 9 9 9 8 9 9 8 8 7 6 6 6 6 6 6 6 6 7 8 9 10 12 13 12 12 12 12 11 11 12 13 15 17 18 19 19 20 21 23 26 29 30 30 30 31 31 31 32 34 35 35 37 38 38 38 36 34 35 34 32 31 30 31 31 29 26 24 23
11 12 12 12 12 12 11 11 11 11 11 11 11 11 11 11 10 10 9 8 8 8 8 8 7 7 7 7 7 8 9 9 9 10 10 11 11 12 13 14 14 15 15 14 14 14 14 14 15 16 18 19 20 21 22 23 26 29 30 30 29 30 30 31 32 33 35 37 38 39 40 39 38 38 37 36 35 34 33 32 29 27 27 26 24
12 12 12 12 12 12 11 11 11 11 11 11 11 11 11 11 10 9 8 8 7 7 7 7 8 7 7 8 8 10 11 12 13 13 14 14 14 13 14 15 15 16 17 17 17 17 16 16 17 16 17 19 21 22 23 25 27 30 30 29 29 30 30 30 31 33 34 35 36 36 38 38 38 38 38 38 37 37 37 36 35 32 30 29 26
13 13 13 12 12 12 12 11 10 10 10 10 10 9 9 8 8 7 7 6 6 6 7 7 8 9 10 10 10 11 12 13 15 16 16 16 14 13 14 15 14 15 17 18 18 18 19 19 20 20 20 21 22 24 25 26 28 29 29 28 29 31 30 30 30 30 31 33 33 33 34 35 35 36 36 37 38 38 37 37 38 36 34 33 31
14 14 14 13 13 13 12 11 10 11 10 9 9 8 8 7 7 7 7 7 7 7 7 8 10 11 13 14 14 13 13 14 14 16 17 16 14 13 13 14 13 14 16 17 17 18 18 19 19 20 20 21 22 24 25 26 28 29 29 27 26 26 24 23 21 20 20 21 22 23 25 27 29 31 32 34 36 37 37 37 37 38 37 36 36
15 15 14 13 13 12 11 11 10 10 9 8 8 7 7 7 7 7 7 7 8 8 8 9 10 12 14 16 16 15 13 13 13 13 14 15 14 13 13 14 13 14 15 16 16 15 16 17 18 19 20 21 23 24 24 24 24 24 23 21 19 17 15 14 13 12 12 12 13 15 16 17 19 22 25 28 30 31 32 33 33 34 35 36 37
15 14 13 12 11 11 10 9 8 8 7 7 7 7 8 8 9 9 8 8 8 9 9 10 10 11 13 15 16 15 13 11 10 10 10 11 11 11 12 13 13 14 16 17 18 17 16 16 17 18 19 19 20 21 20 20 20 19 19 18 18 17 16 15 15 14 14 15 16 17 18 19 20 21 22 23 24 24 25 27 28 29 30 32 34
15 13 12 11 9 9 9 9 8 7 7 7 8 8 9 10 10 10 9 9 9 9 10 10 10 11 12 14 15 14 13 11 11 10 10 11 11 11 11 12 12 13 15 17 19 21 21 20 21 22 22 21 21 23 24 25 25 24 24 23 23 23 22 21 19 18 18 19 19 21 22 23 23 24 24 24 24 24 25 26 27 29 30 31 33
12 11 10 9 9 9 10 10 9 9 8 9 9 9 10 10 10 10 10 9 9 9 10 10 10 11 12 13 14 14 14 15 15 14 13 13 13 12 12 13 14 15 16 16 17 18 19 19 21 22 23 23 23 24 26 27 27 27 27 26 25 25 24 24 23 22 21 21 22 22 23 23 22 23 23 23 24 25 24 25 26 27 27 28 30
10 10 9 9 9 9 9 10 10 10 10 10 10 10 10 9 9 9 8 8 9 9 10 10 11 11 12 13 14 15 17 18 16 15 14 14 15 16 17 18 18 18 19 19 19 19 19 19 20 21 21 22 23 23 24 24 25 26 26 26 25 25 25 24 23 22 22 22 23 23 23 22 23 23 23 24 25 25 25 25 26 26 24 23 24
11 11 10 10 10 10 10 10 10 11 11 10 10 9 8 8 9 8 7 7 8 10 10 11 12 12 13 15 16 17 18 17 15 14 14 15 16 17 18 16 14 14 14 14 15 17 19 20 21 22 22 23 23 24 24 25 25 25 25 25 24 23 22 21 21 22 22 21 21 22 22 22 23 23 23 24 25 25 25 26 27 27 25 23 23
13 13 12 12 12 11 11 11 11 10 10 10 11 10 8 7 7 8 8 8 8 8 10 12 13 14 15 15 14 13 14 14 13 13 14 15 16 16 13 10 10 13 14 14 15 18 19 20 21 22 23 23 22 22 23 23 23 24 24 23 22 21 20 19 19 18 18 18 19 20 20 21 21 21 22 23 24 24 24 24 25 25 24 23 23
14 14 13 13 12 12 12 12 11 10 9 9 11 12 12 10 8 6 6 7 7 7 9 11 12 12 12 11 10 9 10 11 12 14 15 16 16 17 16 16 17 18 17 16 16 16 15 14 13 13 14 15 15 15 16 16 16 17 17 17 17 16 14 13 12 12 12 12 13 14 14 15 17 18 19 20 22 22 23 23 24 24 24 23 22
13 14 14 13 12 12 12 11 10 10 9 9 10 11 14 15 14 11 8 7 8 9 9 9 9 9 9 10 10 11 12 12 12 14 15 16 18 20 21 20 17 13 11 11 10 8 6 4 4 4 4 5 6 6 7 7 7 8 9 9 9 8 8 7 7 8 8 8 8 9 9 10 11 11 12 13 15 16 18 19 21 22 23 23 23
13 14 14 13 13 12 11 10 9 9 9 10 11 11 12 13 15 16 16 14 11 9 7 7 8 9 10 10 11 12 12 12 12 13 14 16 18 18 15 11 8 7 7 7 6 6 5 5 5 5 5 6 6 7 7 8 8 8 8 8 8 8 9 9 9 10 10 10 10 10 10 11 11 11 11 12 12 12 13 14 15 16 18 19 20
13 14 14 13 13 11 10 10 10 10 10 10 11 11 11 11 12 15 18 18 16 14 12 11 11 12 13 13 12 12 12 11 12 13 14 15 15 12 9 7 7 10 10 8 7 7 7 7 7 7 7 7 7 8 9 9 9 9 9 9 9 10 11 12 12 13 13 12 12 12 11 11 11 11 11 11 12 12 13 13 14 14 14 15 15
14 14 14 13 12 11 10 9 10 10 11 11 11 11 11 11 11 11 13 15 17 19 19 17 15 14 14 14 12 12 11 11 12 13 14 14 12 11 11 11 12 13 12 10 9 8 7 7 7 7 7 7 7 7 7 8 8 8 8 9 9 10 11 11 12 13 13 13 12 11 10 10 10 10 11 11 11 12 12 13 13 13 14 15 15
14 15 14 12 10 9 9 9 10 10 11 11 11 11 10 10 11 11 11 12 14 17 20 20 18 16 14 13 12 11 11 11 12 13 13 12 12 12 13 11 10 10 10 9 8 7 7 7 7 7 6 6 6 6 6 6 6 7 7 8 9 9 10 11 12 12 12 11 10 9 10 10 10 10 10 10 10 10 11 11 12 12 12 13 13
15 15 14 11 9 9 10 10 10 10 10 10 10 10 10 10 10 10 11 12 13 15 17 19 19 18 17 15 14 14 14 13 12 12 11 10 10 11 10 8 7 7 8 7 7 7 7 7 7 7 6 6 6 6 6 6 6 7 7 7 8 9 9 9 9 9 10 10 11 11 11 11 10 9 9 9 9 9 9 10 11 11 12 12 12
15 15 13 11 9 10 11 11 10 10 11 10 9 9 10 10 10 10 11 12 13 14 15 16 17 17 18 17 16 15 15 15 14 12 11 9 9 9 8 7 7 7 8 8 8 9 9 8 7 6 5 5 5 5 6 6 6 7 7 8 8 8 8 8 9 10 10 11 11 11 11 10 10 9 9 9 9 10 10 10 11 11 11 12 12
15 14 12 10 10 10 11 11 12 11 11 10 9 9 9 10 10 11 11 12 13 14 14 15 15 15 16 17 16 15 15 15 15 13 11 9 8 9 9 8 8 8 8 9 9 9 9 9 7 5 5 5 5 5 6 6 6 7 7 8 8 9 9 10 10 11 11 12 11 11 10 10 9 9 9 9 10 11 12 11 10 10 9 10 10
15 13 11 10 10 10 11 12 12 12 11 10 9 9 9 10 10 11 11 12 13 14 14 14 15 15 14 14 14 14 15 15 14 12 10 9 9 10 10 9 9 9 8 8 8 8 7 7 6 5 5 5 5 5 5 5 6 7 7 8 9 9 9 9 10 10 10 11 11 10 10 9 9 9 10 10 10 11 11 10 9 8 8 7 8
14 12 11 10 10 11 12 13 13 12 11 10 9 9 9 10 10 10 11 12 13 14 14 14 14 14 13 13 13 13 14 15 13 11 11 11 10 10 10 10 9 8 7 6 6 6 6 6 6 6 5 5 5 5 6 6 7 7 8 8 9 9 9 10 10 10 10 9 10 10 10 10 11 11 11 12 11 10 10 9 9 8 8 7 8
12 12 11 9 10 12 13 14 13 12 11 10 9 8 9 9 10 10 11 12 12 13 14 14 14 13 12 12 12 12 12 13 12 11 11 10 10 9 9 8 7 6 6 5 6 6 6 6 5 5 5 5 6 6 6 7 7 7 8 8 9 9 10 10 10 10 11 11 11 12 12 12 13 13 13 13 11 10 10 10 9 8 8 8 8
11 11 10 10 11 13 14 14 13 11 10 8 8 8 8 9 10 10 11 12 12 12 13 13 13 13 12 11 11 11 11 11 10 10 9 8 8 8 7 7 6 6 5 5 5 5 5 5 5 5 6 6 7 7 7 7 8 8 8 9 9 10 10 11 11 12 12 13 13 14 14 15 14 14 14 13 12 11 11 11 10 9 8 8 7
11 11 11 12 13 15 15 14 13 11 9 8 8 8 8 9 10 10 11 12 11 11 12 12 12 12 12 11 10 10 10 9 9 8 8 7 7 7 6 6 6 6 6 5 5 4 4 5 5 5 6 6 7 7 7 8 9 9 10 10 11 12 12 12 12 11 12 13 14 15 15 14 13 13 12 12 11 11 11 11 10 9 8 8 8
12 12 13 14 16 16 16 14 12 10 9 8 8 9 9 10 11 11 11 11 11 11 12 12 12 12 12 11 10 9 9 8 8 7 7 7 7 7 6 6 6 5 5 5 5 5 5 5 5 6 6 7 8 8 9 10 11 11 11 12 12 13 12 12 11 11 12 13 13 13 12 11 10 10 10 10 10 10 11 10 9 8 8 8 9
13 13 14 16 17 17 16 14 11 10 9 9 9 10 10 11 12 11 11 11 11 12 12 12 12 12 12 11 10 9 8 8 8 8 8 7 7 6 6 6 5 5 5 5 5 6 5 6 6 6 7 8 9 10 10 10 9 9 9 9 10 11 11 11 10 10 9 9 9 9 9 9 9 9 10 10 10 10 9 8 8 8 8 9 10
13 14 15 17 17 17 16 13 11 10 10 9 10 11 12 12 12 11 11 11 11 11 12 12 12 12 11 10 9 9 8 8 9 9 8 8 7 7 6 6 5 5 5 5 6 6 6 6 7 7 8 9 9 9 8 7 7 7 7 7 7 8 8 7 7 7 6 7 7 8 9 9 9 9 9 9 8 8 7 7 8 8 9 10 11
14 15 16 17 17 16 15 13 11 11 11 11 12 13 13 13 13 12 12 12 11 12 12 12 12 11 10 10 9 9 8 8 9 9 9 9 8 7 6 6 5 5 6 6 6 6 6 6 7 8 8 8 8 7 6 6 6 6 5 5 5 5 5 5 5 5 6 7 8 8 9 9 8 7 7 7 7 7 8 8 9 10 10 11 11
15 15 16 16 16 15 14 13 12 12 12 12 13 14 14 14 13 13 12 12 12 12 12 12 12 11 10 9 9 8 8 8 9 9 9 8 7 6 6 5 5 6 6 6 6 7 7 7 8 8 7 7 6 6 6 5 5 5 4 3 3 3 4 4 5 6 7 7 8 9 9 9 9 8 8 8 8 8 9 9 9 10 10 10 11
15 15 15 16 16 15 14 13 13 13 13 13 14 15 15 15 14 14 13 13 13 13 12 12 11 11 10 10 9 9 9 8 9 8 7 6 6 6 6 6 6 6 6 7 7 7 7 7 7 7 6 6 6 5 5 5 5 4 3 2 2 3 4 5 6 6 7 8 8 8 9 9 9 9 9 9 9 9 9 9 9 9 9 10 10
15 15 15 15 15 15 14 14 14 14 14 14 14 15 16 15 15 14 14 14 14 14 13 12 11 11 10 10 9 9 9 9 9 8 7 7 7 7 7 7 7 7 7 7 7 7 7 7 7 6 6 6 5 5 5 5 5 5 4 4 5 5 6 6 7 8 9 9 9 8 8 9 9 10 10 10 9 9 9 9 9 9 9 10 11
Wind_Direction
249 250 251 250 250 250 250 251 250 250 250 250 250 252 254 255 256 257 256 255 253 251 250 247 246 245 243 242 240 238 237 235 233 231 231 231 231 231 231 230 230 231 231 232 231 230 231 232 233 233 231 231 231 230 230 229 228 227 226 225 225 226 224 220 226 245 243 238 240 241 241 241 242 245 247 247 248 249 253 256 259 262 266 268 270
265 262 260 256 255 255 254 254 253 252 252 251 252 255 257 259 261 260 258 258 257 254 252 250 248 246 243 241 240 238 237 236 234 232 230 231 230 230 230 229 230 231 230 231 231 230 231 232 233 233 230 230 230 229 228 227 225 225 225 226 226 226 225 222 225 237 242 239 240 241 240 238 240 242 245 249 251 253 256 259 262 266 269 271 273
294 283 277 271 268 266 262 260 258 256 255 256 257 260 263 265 265 263 263 264 262 259 257 254 250 247 244 241 239 238 237 236 234 233 231 231 230 230 230 229 229 230 229 230 230 229 229 231 232 231 228 228 229 228 227 226 224 224 225 226 226 225 225 224 226 231 238 239 239 239 238 237 239 242 245 250 254 257 261 265 269 272 274 276 277
347 328 309 297 288 280 275 271 267 264 264 265 268 270 272 273 272 269 269 268 265 262 260 256 252 248 244 242 240 238 237 235 234 233 232 232 231 231 231 229 229 230 229 230 229 228 228 229 230 229 226 226 228 226 225 224 223 223 223 224 225 225 226 226 227 230 235 238 237 238 240 240 242 246 248 251 256 260 265 271 275 277 279 280 280
7 2 352 338 321 305 296 288 281 278 278 278 280 281 280 279 276 274 272 270 267 265 261 257 252 248 246 244 242 240 238 236 234 233 233 232 232 232 231 230 230 230 231 231 230 228 228 229 229 227 224 224 225 224 222 223 222 222 222 222 222 224 226 227 229 230 233 237 236 236 240 241 243 247 248 251 257 262 267 272 276 278 279 280 279
357 354 349 343 334 323 313 304 297 294 291 289 288 286 284 280 278 277 276 275 272 267 263 260 255 251 250 248 246 244 242 239 236 235 234 232 232 232 232 232 232 232 232 231 230 229 229 230 229 226 223 223 223 222 222 221 221 220 221 221 222 223 224 226 229 230 232 237 238 236 236 237 241 245 247 251 258 263 269 274 276 276 276 278 280
345 341 336 331 326 321 316 312 307 304 301 298 296 292 290 287 285 285 285 283 281 275 270 266 262 259 256 253 251 249 245 242 239 237 235 233 232 232 232 231 232 232 232 232 231 230 230 230 229 227 225 225 224 223 221 220 220 221 221 221 220 221 223 225 226 228 230 235 236 235 235 237 240 245 250 254 258 262 266 269 272 274 275 277 279
334 331 326 323 319 316 315 314 312 312 311 309 307 304 303 301 299 298 297 295 292 286 281 276 271 267 262 259 256 253 248 244 241 239 236 234 232 231 231 231 231 231 232 232 231 231 231 231 230 229 228 228 227 226 224 221 220 220 221 220 220 222 224 224 224 225 228 231 234 234 235 237 238 241 246 247 249 257 260 261 266 270 274 276 277
329 325 320 318 317 318 320 320 320 322 322 322 322 320 318 316 314 310 307 304 299 294 288 283 277 272 268 263 258 254 250 247 245 242 239 236 233 232 231 230 230 230 231 231 232 232 232 232 232 232 232 232 231 230 229 226 224 222 222 220 221 223 224 224 223 224 225 228 233 233 232 234 234 233 237 238 244 255 260 259 262 266 270 274 275
332 329 327 332 340 343 344 348 349 351 351 348 342 336 332 326 322 318 315 311 307 301 295 289 284 277 270 265 259 255 252 250 248 245 242 239 236 234 232 231 231 231 231 231 232 233 233 233 234 235 234 235 234 232 232 231 231 231 229 227 227 226 224 224 224 224 224 227 231 230 229 233 233 232 239 246 251 257 258 255 258 263 267 271 273
340 342 348 0 7 8 16 17 11 7 3 356 349 344 340 335 331 328 325 321 316 311 305 298 291 284 275 269 264 259 255 253 250 247 243 241 239 237 235 234 233 233 233 233 233 234 234 234 235 236 235 235 234 234 234 234 235 235 235 235 235 232 229 227 224 224 224 227 233 232 229 235 240 239 243 250 252 254 255 253 254 258 257 259 269
344 345 351 359 3 6 7 2 358 358 355 351 350 347 342 339 339 336 335 334 331 326 322 315 307 297 287 279 273 267 264 261 256 252 245 240 241 243 242 240 238 236 236 235 236 236 236 237 237 237 237 236 236 235 235 236 237 237 237 238 238 237 236 234 232 230 229 230 234 235 233 238 243 243 244 248 251 252 254 253 251 251 250 249 256
338 339 342 346 349 352 351 350 351 352 352 351 348 346 344 344 346 344 344 343 341 338 336 333 326 316 305 295 285 278 273 269 263 258 250 241 240 245 246 244 242 241 240 239 239 239 238 238 238 238 238 238 237 236 235 235 236 236 238 239 238 239 240 239 238 240 241 239 238 239 240 242 244 247 250 251 252 252 250 250 251 249 247 248 253
332 332 336 339 343 345 344 347 348 347 348 346 345 346 347 348 348 346 345 343 342 343 342 340 338 333 324 316 302 292 287 279 268 259 256 253 249 251 254 251 245 244 244 243 242 241 240 239 239 239 240 239 237 236 235 235 235 235 236 236 237 238 239 239 237 239 244 246 245 246 248 248 250 255 258 256 253 252 250 251 252 251 250 254 260
334 334 336 339 343 344 343 344 344 342 341 340 340 343 345 345 346 344 344 345 344 345 344 342 341 340 336 332 325 318 310 291 279 276 274 269 265 268 273 270 254 247 245 243 239 238 239 239 239 240 241 241 240 238 238 238 238 237 236 235 237 238 239 240 240 240 242 245 248 251 253 253 255 259 260 258 256 257 257 257 258 258 258 261 263
346 347 347 347 347 345 344 342 339 337 334 331 330 333 336 338 341 341 342 344 344 345 346 344 342 341 338 337 336 333 326 303 294 314 311 292 285 287 291 299 282 254 249 248 245 243 242 241 240 240 240 242 244 243 243 243 241 239 237 238 240 240 241 244 246 247 246 246 247 250 253 256 258 260 260 258 258 260 259 256 255 253 253 256 257
351 351 348 347 344 341 340 337 334 330 326 324 323 324 327 330 332 334 335 337 341 343 344 344 343 339 337 333 331 329 325 314 304 325 344 334 318 318 323 333 336 311 283 275 271 266 260 255 251 248 245 246 249 249 247 245 243 241 240 241 242 243 244 246 248 248 246 245 247 250 253 254 254 254 255 253 254 256 250 243 243 242 240 243 249
347 344 341 340 337 335 333 332 331 328 325 325 323 320 321 321 323 327 328 328 331 334 336 338 336 334 334 333 330 324 320 321 318 326 347 348 331 324 326 328 326 320 309 296 282 274 271 267 264 260 257 255 256 256 251 243 242 243 243 243 243 242 244 246 248 248 246 246 250 254 257 257 256 256 256 253 253 250 240 235 239 237 231 233 241
342 339 335 332 329 327 327 326 327 327 325 324 324 320 317 317 316 316 318 319 322 323 325 325 323 324 326 324 324 319 312 316 320 321 330 338 333 324 319 319 318 314 308 301 292 281 273 267 263 262 261 260 259 256 251 244 242 244 244 242 240 241 245 247 249 250 249 249 252 256 259 262 263 262 260 258 257 254 248 246 244 234 229 236 241
330 327 323 321 319 317 318 318 320 321 319 317 318 317 314 312 310 308 308 309 311 312 314 313 310 312 313 312 313 313 309 308 311 312 313 316 322 323 317 313 311 308 303 299 294 288 282 275 268 262 258 256 255 252 250 247 246 246 243 237 236 242 249 249 248 249 249 249 252 254 257 261 263 263 262 260 259 259 258 259 255 242 236 239 239
319 316 314 313 311 311 313 314 314 314 314 312 311 311 309 307 306 306 305 304 305 305 305 304 301 299 301 304 306 310 310 307 304 304 303 303 309 315 311 305 304 302 299 296 292 288 284 279 275 271 263 256 254 253 253 252 251 250 247 242 243 248 249 247 246 247 247 248 249 250 252 255 257 258 259 259 259 260 260 261 260 254 244 240 239
314 312 311 309 308 308 309 310 310 312 313 314 313 311 310 308 307 306 306 303 304 304 302 302 301 297 296 298 300 304 307 306 301 298 296 296 300 305 301 296 294 292 290 289 286 282 281 277 274 272 266 260 257 257 258 258 259 259 258 255 256 257 255 252 249 246 244 244 244 245 246 247 249 252 253 254 256 259 260 261 262 260 255 248 244
313 312 311 309 308 307 306 305 307 311 316 321 323 322 321 320 318 316 314 310 308 307 309 310 307 304 300 297 296 299 303 303 299 295 292 292 294 298 295 290 287 283 281 281 279 277 277 276 274 271 265 260 260 259 258 259 261 264 266 266 266 266 263 260 254 247 244 242 242 242 242 241 243 247 249 252 255 257 259 262 263 263 262 259 254
315 314 313 312 311 310 308 307 308 310 315 323 329 333 334 335 333 328 324 320 315 313 315 316 314 312 309 303 300 302 306 305 300 296 294 293 292 293 291 287 284 280 278 277 275 273 271 269 270 269 265 262 263 263 263 263 264 267 269 270 271 274 273 270 269 267 266 263 260 259 256 250 247 248 249 253 258 261 262 264 265 264 264 265 264
316 317 316 315 316 315 314 314 313 314 318 322 328 335 337 337 335 331 327 324 319 318 320 321 318 317 314 309 308 311 316 317 314 313 311 306 302 299 294 288 282 277 272 270 268 267 267 267 268 267 266 266 268 269 270 270 270 272 273 273 275 280 283 283 284 280 274 269 266 265 264 262 261 260 261 262 264 264 263 261 261 261 261 263 263
316 317 317 318 320 319 318 318 316 316 317 317 320 324 325 322 321 320 319 318 317 316 316 318 318 315 312 312 313 318 324 326 325 325 324 319 314 311 305 298 291 284 276 271 267 266 267 268 268 267 268 270 271 272 273 273 274 277 278 278 279 281 283 284 283 277 270 266 265 263 264 266 266 265 265 263 261 260 260 259 258 256 255 256 257
315 318 321 322 323 321 320 318 315 314 313 312 313 313 313 314 312 311 312 311 310 311 310 310 310 308 307 311 314 317 320 320 320 321 322 318 315 314 310 305 300 293 287 284 280 277 275 272 270 269 269 270 271 271 272 273 274 275 276 277 279 280 281 282 281 277 273 270 269 268 269 270 269 267 264 261 259 259 259 260 259 257 255 254 252
317 321 324 325 324 323 321 319 317 317 317 319 321 320 319 317 312 309 313 311 306 306 305 303 302 303 303 305 307 306 308 311 314 318 318 314 312 311 306 300 296 291 288 286 286 284 282 278 276 274 273 272 271 271 270 271 272 274 276 278 279 279 280 280 278 276 275 274 272 272 272 270 268 266 265 263 262 261 261 260 260 260 259 255 250
319 322 324 325 324 323 323 323 323 324 324 325 328 326 327 327 319 314 317 315 306 303 299 296 299 301 297 296 294 291 295 304 313 315 310 305 304 304 303 301 300 298 295 294 291 286 281 277 274 272 271 271 270 270 271 272 272 274 276 278 280 281 281 279 277 276 276 276 274 272 272 271 269 268 266 263 263 263 262 259 258 259 259 257 254
320 322 325 326 326 324 325 326 326 327 327 328 329 326 326 329 324 315 311 307 301 297 291 292 299 299 295 297 299 294 295 308 314 306 300 300 301 302 307 312 308 300 296 294 288 277 269 266 264 264 264 266 267 269 271 274 276 278 280 282 284 286 286 285 285 284 283 281 279 277 275 273 270 269 267 264 264 266 264 260 257 255 254 253 255
319 321 324 325 325 325 326 326 327 328 328 330 331 330 327 327 326 316 307 304 306 302 295 296 302 302 299 309 322 316 308 313 310 300 299 302 299 294 297 303 302 295 289 283 277 269 261 257 259 262 264 266 270 274 277 280 282 284 286 288 289 290 290 289 288 286 284 282 281 280 279 275 273 272 269 267 267 267 265 262 259 254 251 252 254
316 319 322 323 322 323 324 325 327 328 329 331 333 334 334 333 331 326 321 315 312 309 309 312 317 316 314 321 329 322 312 311 309 303 299 295 290 287 292 298 298 290 280 274 270 268 270 268 267 276 279 276 280 286 288 289 290 290 292 294 291 289 290 289 285 284 286 290 290 287 285 285 285 284 281 279 279 276 271 266 260 256 253 253 253
314 316 319 320 320 321 321 322 324 326 328 330 330 332 334 333 328 324 322 322 319 314 313 319 324 324 320 320 324 323 316 313 312 306 297 293 294 294 296 297 293 286 288 290 285 282 293 300 298 299 298 293 290 289 288 287 288 289 291 292 289 287 287 288 291 294 295 297 297 296 296 295 294 294 294 293 293 293 290 284 279 272 266 261 258
314 315 317 317 317 317 317 318 319 320 322 323 324 324 325 323 321 319 320 323 324 320 318 321 326 327 324 323 324 325 321 317 317 312 305 304 305 299 285 274 284 295 301 306 305 301 302 303 302 300 298 295 291 288 285 284 283 282 283 285 286 286 288 290 293 296 298 299 299 297 294 293 291 293 296 296 294 294 292 291 290 288 284 282 282
312 312 314 312 310 311 312 314 315 316 317 319 319 318 317 315 314 313 313 314 314 314 317 324 331 333 332 330 329 326 322 319 319 316 311 309 311 308 300 294 294 297 301 305 305 304 303 302 302 302 298 293 290 287 284 283 283 283 286 288 289 291 294 295 296 298 300 300 298 294 291 291 293 295 296 294 294 293 290 288 288 286 285 288 290
307 309 311 308 304 306 309 312 314 314 314 315 315 313 311 310 308 306 306 304 303 305 311 320 327 330 332 334 332 325 319 317 315 313 311 311 312 313 314 312 304 299 301 305 305 303 304 305 305 305 298 286 278 275 274 275 279 283 286 290 292 294 296 297 299 301 300 296 294 295 298 299 300 300 298 293 290 289 286 287 291 290 289 291 291
303 307 310 307 301 304 310 313 315 314 313 313 313 310 307 305 304 305 304 303 303 304 307 315 322 324 327 333 336 329 323 320 316 312 312 313 311 311 315 320 316 304 299 301 302 302 303 305 304 301 294 281 272 271 272 274 278 282 285 286 285 286 290 293 294 294 292 290 292 296 297 298 298 299 298 297 296 295 292 291 293 294 295 296 298
301 306 309 305 302 306 311 314 315 315 314 313 311 307 304 303 304 304 303 302 303 303 305 310 316 317 318 325 331 327 321 320 318 316 314 312 311 315 319 317 309 300 292 289 290 291 293 298 299 293 284 275 272 273 273 275 277 279 280 280 281 283 286 286 284 283 284 287 290 291 290 290 291 293 293 292 293 295 297 296 295 294 293 292 293
301 305 305 301 302 307 311 313 315 315 314 312 308 303 300 299 300 301 302 302 302 303 305 308 309 309 313 319 322 322 318 315 314 314 312 307 307 312 313 308 300 294 285 279 276 277 281 285 285 279 275 271 269 268 268 271 276 279 281 283 284 285 287 285 283 283 283 281 282 284 285 286 288 290 291 291 291 293 293 291 287 286 289 290 292
301 302 299 297 300 305 309 311 312 312 310 307 303 299 295 295 298 301 302 302 301 302 304 304 303 307 313 315 315 314 311 308 308 308 304 302 305 307 304 299 295 286 276 269 264 263 267 271 271 272 272 267 264 266 268 273 278 282 284 285 284 283 285 285 284 284 282 279 278 278 280 283 287 290 289 288 290 290 287 281 278 282 289 294 297
297 295 293 294 299 304 307 308 307 308 306 301 296 294 293 295 299 301 301 301 301 301 301 300 301 308 313 311 308 306 302 301 305 305 301 300 302 299 293 291 288 279 267 260 255 257 264 269 270 268 265 263 267 273 275 279 282 283 283 283 282 281 281 281 281 282 283 284 284 284 284 287 289 289 287 286 286 282 275 270 273 279 284 293 303
292 288 290 295 300 303 304 304 303 302 299 293 290 292 295 298 301 301 299 298 298 298 298 300 304 310 311 308 305 302 297 296 298 298 297 297 296 290 285 283 278 269 258 255 261 268 271 269 266 264 265 270 278 281 283 283 282 279 276 274 273 273 275 277 279 281 283 285 288 290 292 292 291 288 287 283 276 268 264 266 272 275 279 289 300
287 286 289 294 298 301 303 304 303 299 294 290 291 295 297 299 298 296 294 294 295 296 298 301 307 311 312 310 306 300 295 294 293 293 294 294 289 285 282 276 267 260 256 260 268 270 264 261 262 264 270 277 281 283 285 284 279 275 273 270 268 270 272 274 277 279 282 286 289 290 289 288 286 285 283 278 270 263 263 265 267 270 276 287 297
285 287 289 293 299 304 306 306 303 299 294 291 292 293 294 294 292 291 291 292 294 296 299 301 306 311 312 312 309 302 296 294 292 290 290 290 286 281 275 266 260 257 259 262 263 257 254 258 263 266 273 280 282 283 284 284 281 280 278 275 273 272 272 274 278 282 284 286 286 286 285 285 284 283 282 277 269 265 264 264 265 268 275 286 295
285 285 288 295 301 306 308 307 302 295 291 289 290 291 291 291 292 292 292 293 295 298 301 303 306 309 310 312 311 306 301 299 294 288 286 286 285 280 269 259 257 260 260 257 252 251 254 262 268 272 278 282 286 290 292 292 291 290 287 284 281 277 274 274 278 283 285 284 282 282 284 285 286 288 287 282 277 272 268 267 268 271 279 289 296
285 283 288 297 302 305 307 305 298 290 287 287 289 290 291 293 294 293 292 294 295 298 300 303 305 305 305 306 305 302 300 298 293 288 283 279 278 276 270 262 257 258 255 250 248 253 259 264 270 279 287 291 294 298 298 297 298 298 295 293 292 288 284 282 280 280 282 284 285 286 289 289 289 289 289 288 285 278 270 268 272 279 287 295 297
284 284 289 296 301 303 303 301 295 290 288 287 287 289 292 295 296 294 292 292 294 295 298 302 303 301 300 300 298 296 296 294 290 287 281 275 272 271 266 258 251 249 248 247 249 255 261 268 280 291 298 299 299 300 299 301 306 307 302 300 299 297 295 292 285 277 278 285 290 292 291 289 289 291 291 292 288 279 270 274 283 288 294 297 298
285 286 290 295 299 300 299 297 293 288 286 287 288 290 292 294 294 292 292 291 292 294 297 299 299 297 296 294 291 290 290 289 287 284 278 273 268 260 251 245 243 245 247 248 253 258 265 278 292 300 301 299 297 296 294 299 308 312 307 300 296 299 307 309 303 296 294 295 296 296 291 287 288 290 292 290 286 280 278 283 288 292 296 298 299
288 287 289 293 297 298 297 296 291 287 287 289 289 289 291 292 290 290 291 291 290 293 295 296 296 295 293 290 288 285 284 285 284 282 277 269 257 242 234 238 243 247 250 252 255 260 272 288 297 298 296 294 292 291 291 294 302 308 309 300 294 302 313 317 314 313 311 306 303 300 295 290 286 284 284 284 282 281 281 284 287 291 296 299 300
291 288 288 291 295 297 298 294 289 286 287 288 286 287 289 289 288 289 291 289 289 291 293 293 292 290 288 287 285 282 280 281 280 276 269 258 243 236 239 246 249 249 250 252 255 264 280 292 295 292 290 290 290 289 288 288 289 288 285 284 290 299 307 312 314 315 315 312 308 303 297 293 288 284 281 281 282 282 284 286 289 293 299 302 303
294 291 289 290 294 298 298 294 289 288 288 286 285 286 287 286 287 289 289 287 287 290 291 291 290 286 283 281 279 278 277 277 273 267 256 245 242 247 250 249 248 247 248 251 257 270 283 289 288 285 285 285 284 282 282 282 280 273 269 272 278 283 290 299 306 307 307 307 305 303 300 297 295 292 287 284 281 281 283 285 288 291 296 299 300